San Jose, Costa Rica

9:52 AM CST on April 19, 2018 (GMT -0600)
Juan Santamaria International

Weather History for MROC - November, 2011

Change the Weather History Date:

Thursday, November 24, 2011

  Actual Average Record
Temperature  
Mean Temperature 72 °F -  
Max Temperature 77 °F 79 °F 84 °F (1997)
Min Temperature 66 °F 64 °F 60 °F (1996)
Cooling Degree Days 6    
Growing Degree Days 22 (Base 50)    
Moisture  
Dew Point 64 °F    
Average Humidity 80    
Maximum Humidity 100    
Minimum Humidity 63    
Precipitation  
Precipitation 0.08 in 0.07 in - ()
Sea Level Pressure  
Sea Level Pressure 29.98 in    
Wind  
Wind Speed 5 mph ()    
Max Wind Speed 9 mph    
Max Gust Speed -    
Visibility 6.8 miles    
Events Rain    
Averages and records for this station are not official NWS values.
T = Trace of Precipitation, MM = Missing Value Source: Averaged Metar Reports

Daily Weather History Graph

Daily Weather History Graph

Search for Another Location

Airport or City:

Astronomy

Nov. 24, 2011 Rise Set
Actual Time 5:34 AM CST 5:12 PM CST
Civil Twilight 5:12 AM CST 5:34 PM CST
Nautical Twilight 4:46 AM CST 6:00 PM CST
Astronomical Twilight 4:21 AM CST 6:26 PM CST
Moon 4:49 AM CST (11/24) 4:47 PM CST (11/24)
Length of Visible Light 12h 21m
Length of Day
11h 37m
Waning Crescent, 0% of the Moon is Illuminated
Nov 24
Waning Crescent
Nov 25
New
Dec 2
First Quarter
Dec 10
Full
Dec 17
Last Quarter

Hourly Weather History & Observations

Time (CST) Temp. Dew Point Humidity Pressure Visibility Wind Dir Wind Speed Gust Speed Precip Events Conditions
12:00 AM 69 °F 62 °F 72% 29.89 in 12 mi East 6.9 mph - -   Scattered Clouds
12:00 AM 68.0 °F 62.6 °F 83% 30.04 in 6.2 mi East 6.9 mph - N/A   Scattered Clouds
1:00 AM 68.0 °F 62.6 °F 83% 30.01 in 6.2 mi East 5.8 mph - N/A   Scattered Clouds
2:00 AM 68.0 °F 62.6 °F 83% 29.99 in 6.2 mi East 4.6 mph - N/A   Scattered Clouds
3:00 AM 68 °F 63 °F 79% 29.86 in 12 mi East 6.9 mph - -   Scattered Clouds
3:00 AM 68.0 °F 62.6 °F 83% 29.98 in 6.2 mi East 6.9 mph - N/A   Mostly Cloudy
4:00 AM 69.8 °F 62.6 °F 78% 29.98 in 6.2 mi ESE 3.5 mph - N/A   Mostly Cloudy
5:00 AM 66.2 °F 64.4 °F 94% 29.99 in 6.2 mi ENE 3.5 mph - N/A   Mostly Cloudy
6:00 AM 69 °F 63 °F 76% 29.86 in 12 mi ESE 3.5 mph - -   Partly Cloudy
6:00 AM 68.0 °F 62.6 °F 83% 30.00 in 6.2 mi ESE 3.5 mph - N/A   Mostly Cloudy
6:40 AM 66.2 °F 64.4 °F 94% 30.03 in 3.1 mi East 8.1 mph - N/A Rain Light Rain
9:00 AM 71 °F 64 °F 74% 29.96 in 9 mi ESE 6.9 mph - -   Overcast
10:00 AM 71.6 °F 66.2 °F 83% 30.05 in 6.2 mi SE 4.6 mph - N/A   Mostly Cloudy
11:00 AM 73.4 °F 64.4 °F 73% 30.02 in 6.2 mi ESE 3.5 mph - N/A   Mostly Cloudy
12:00 PM 74 °F 64 °F 63% 29.90 in 9 mi SSE 4.6 mph - - Rain Light Rain
12:00 PM 73.4 °F 64.4 °F 73% 30.01 in 6.2 mi SSE 4.6 mph - N/A Rain Light Rain
1:00 PM 73.4 °F 64.4 °F 73% 29.99 in 6.2 mi NW 2.3 mph - N/A   Light Drizzle
2:00 PM 77.0 °F 64.4 °F 65% 29.96 in 6.2 mi WSW 2.3 mph - N/A   Scattered Clouds
3:00 PM 75.2 °F 64.4 °F 69% 29.94 in 6.2 mi SSE 2.3 mph - N/A   Scattered Clouds
5:00 PM 71.6 °F 62.6 °F 73% 29.97 in 6.2 mi ESE 9.2 mph - N/A   Mostly Cloudy
6:00 PM 69.8 °F 62.6 °F 78% 29.99 in 6.2 mi East 5.8 mph - N/A   Mostly Cloudy
7:00 PM 69.8 °F 62.6 °F 78% 30.03 in 6.2 mi East 5.8 mph - N/A   Mostly Cloudy
8:00 PM 69.8 °F 62.6 °F 78% 30.05 in 6.2 mi ENE 9.2 mph - N/A   Light Drizzle
9:00 PM 67 °F 67 °F 100% 29.89 in 3 mi SW 3.5 mph - - Rain Light Rain
9:00 PM 68.0 °F 62.6 °F 83% 30.07 in 6.2 mi East 8.1 mph - N/A   Drizzle
10:00 PM 66.2 °F 64.4 °F 94% 30.07 in 6.2 mi East 5.8 mph - N/A Rain Light Rain
11:00 PM 66.2 °F 62.6 °F 88% 30.04 in 6.2 mi ENE 6.9 mph - N/A Rain Light Rain